Regional Weather Roundup
Issued by NWS

Home | Current Version | Previous Version | Text Only | Print | Product List | Glossary Off
Versions: 1 2 3 4 5 6 7 8 9 10 11 12 13 14 15 16 17 18 19 20 21 22 23 24 25 26 27 28 29 30 31 32 33 34 35 36 37 38 39 40 41 42 43 44 45 46 47 48 49 50

000
ASUS43 KLSX 181857
RWRMO

WEATHER SUMMARY FOR MISSOURI
NATIONAL WEATHER SERVICE SPRINGFIELD MO
100 PM CST SAT NOV 18 2017

NOTE: "FAIR" INDICATES FEW OR NO CLOUDS BELOW 12,000 FEET WITH NO
       SIGNIFICANT WEATHER AND/OR OBSTRUCTIONS TO VISIBILITY.
       CURRENT SKY AND/OR WEATHER CONDITIONS ARE NOT AVAILABLE FOR
       CHILLICOTHE AND FARMINGTON.

MOZ001>031-035>038-043-044-053-054-182000-
...NORTHERN AND WESTERN MISSOURI...

CITY           SKY/WX    TMP DP  RH WIND       PRES   REMARKS
KANSAS CTY INT CLOUDY    46  34  62 NW17G28   29.93R
LEE`S SUMMIT   CLOUDY    46  36  68 NW23G29   29.91R
ST JOSEPH      MOSUNNY   48  32  53 NW25G36   29.94R
CHILLICOTHE      N/A     45  35  68 NW14G23   29.87R

$$
MOZ066>068-077>081-088>096-101>105-182000-
...SOUTHWEST MISSOURI...

CITY           SKY/WX    TMP DP  RH WIND       PRES   REMARKS
SPRINGFIELD    LGT RAIN  44  42  93 NW24G33   29.84R
JOPLIN         LGT RAIN  45  43  93 NW21G33   29.97R
BRANSON        CLOUDY    46  39  76 NW16G31   29.83R

$$
MOZ032>034-039>042-045>050-055>058-069>072-182000-
...CENTRAL MISSOURI...

CITY           SKY/WX    TMP DP  RH WIND       PRES   REMARKS
COLUMBIA       NOT AVBL
JEFFERSON CITY RAIN      43  40  89 NW20G25   29.77R FOG
ROLLA          RAIN      42  41  96 NW18G31   29.71R FOG
SEDALIA        LGT RAIN  44  42  93 NW17G30   29.84R
WARRENSBURG    CLOUDY    45  37  76 NW15G24   29.88R

$$
MOZ051-052-059>065-182000-
...EAST CENTRAL MISSOURI...

CITY           SKY/WX    TMP DP  RH WIND       PRES   REMARKS
ST LOUIS INTL  LGT RAIN  44  42  93 NW20G31   29.56R FOG

$$
MOZ072>076-082>087-097>100-106>115-182000-
...SOUTH CENTRAL AND SOUTHEAST MISSOURI...

CITY           SKY/WX    TMP DP  RH WIND       PRES   REMARKS
CAPE GIRARDEAU TSTM      64  62  93 NW30G47   29.40R VSB 1/2
POPLAR BLUFF   CLOUDY    69  57  65 W18G36    29.45R
WEST PLAINS    LGT RAIN  49  40  71 NW28G39   29.69R

$$


USA.gov is the U.S. government's official web portal to all federal, state and local government web resources and services.